Location: *
(43.0167°S, 179.9000°E)
Time: 19:49:33
(UTC+00:00)

USA 215 - Pass Details

Date: 12 August 2024
Orbit: 1099 x 1108 km, 123.0° (Epoch: 16 September)

Event Time Altitude Azimuth Distance (km) Brightness Sun altitude
Rises 16:37:50 0° 130° (SE) 3,953 7.0 -25.9°
Reaches altitude 10° 16:40:24 10° 125° (SE) 2,989 6.3 -25.4°
Maximum altitude 16:46:54 58° 46° (NE) 1,283 3.7 -24.2°
Enters shadow 16:52:08 16° 331° (NNW) 2,526 4.9 -23.3°
